軌道要素
Epoch 2019 Apr. 27.0 TT = JDT 2458600.5
T 2019 Apr. 20.73777 TT Rudenko
q 4.4443490 (2000.0) P Q
n 0.08991242 Peri. 297.34683 -0.22464847 -0.97189518
a 4.9346489 Node 165.12233 +0.96252107 -0.23258264
e 0.0993586 Incl. 15.90826 +0.15194161 +0.03640161
P 11.0
From 57 observations 2016 Oct. 30-2018 Jan. 19, mean residual 0".5.
|